Regional Weather Roundup
Issued by NWS Mobile, AL

Home | Current Version | Previous Version | Text Only | Print | Product List | Glossary On
Versions: 1 2 3 4 5 6 7 8 9 10 11 12 13 14 15 16 17 18 19 20 21 22 23 24 25 26 27 28 29 30 31 32 33 34 35 36 37 38 39 40 41 42 43 44 45 46 47 48 49 50
000
ASUS44 KMOB 260612
RWRMOB
REGIONAL WEATHER ROUNDUP
NATIONAL WEATHER SERVICE MOBILE AL
100 AM CDT TUE MAY 26 2015

NOTE: "FAIR" INDICATES FEW OR NO CLOUDS BELOW 12,000 FEET WITH NO
      SIGNIFICANT WEATHER AND/OR OBSTRUCTIONS TO VISIBILITY.

  * THESE STATIONS ARE PART OF THE UNIVERSITY OF SOUTH ALABAMA
    MESONET AND ARE NOT UNDER NWS OR FAA QUALITY CONTROL.

ALZ061>064-260700-
COASTAL ALABAMA

CITY           SKY/WX    TMP DP  RH WIND       PRES   REMARKS
MOBILE REG APT CLOUDY    76  75  97 S13       30.08F
6HR MIN TEMP:  72; 6HR MAX TEMP:  76; 6HR PCP: TRACE;

BROOKLEY FIELD CLOUDY    78  75  90 SE14      30.09F
6HR MIN TEMP:  71; 6HR MAX TEMP:  78; 6HR PCP:  1.03;

USA CAMPUS*      N/A     77  75  94 S7        30.08F
DOG RIVER*     NOT AVBL


CITY           SKY/WX    TMP DP  RH WIND       PRES   REMARKS
MOUNT VERNON*    N/A     66  66 100 CALM      30.10S
SARALAND*      NOT AVBL
BAY MINETTE*   NOT AVBL
LOXLEY*          N/A     73  72  94 SE9       30.10F
ROBERTSDALE*     N/A     73  72  94 S5        30.10F
FAIRHOPE*        N/A     73  73 100 SE7       30.10S
ELBERTA*         N/A     77  75  94 SE7       30.09F
FOLEY*         NOT AVBL
GRAND BAY*       N/A     77  75  94 SE10      30.06F
DAUPHIN ISLND* NOT AVBL
BON SCOUR NWR* NOT AVBL
GULF SHORES    MOCLDY    78  75  90 SE7       30.10F

$$

ALZ051>060-260700-
INTERIOR SOUTHWEST AND SOUTH CENTRAL ALABAMA

CITY           SKY/WX    TMP DP  RH WIND       PRES   REMARKS
GREENVILLE     NOT AVBL
EVERGREEN      CLOUDY    70  69  97 CALM        N/A
6HR MIN TEMP:  70; 6HR MAX TEMP:  71; 6HR PCP:  0.04;

CASTLEBERRY*   NOT AVBL
ATMORE*          N/A     70  70 100 SE5       30.12F
DIXIE*         NOT AVBL
ANDALUSIA/OPP  NOT AVBL
ANDALUSIA*       N/A     70  70 100 SE6       30.13F
FLORALA APT    MOCLDY    70  68  93 CALM      30.14F
6HR MIN TEMP:  70; 6HR MAX TEMP:  73;

FLORALA*         N/A     70  70 100 CALM      30.10F

$$

FLZ001>006-260700-
WESTERN FLORIDA PANHANDLE

CITY           SKY/WX    TMP DP  RH WIND       PRES   REMARKS
PENSACOLA      MOCLDY    77  74  90 S12       30.10F
6HR MIN TEMP:  73; 6HR MAX TEMP:  79; 6HR PCP: TRACE;

NAS PENSACOLA  MOCLDY    79  75  87 SE8       30.10F
6HR MIN TEMP:  77; 6HR MAX TEMP:  81;

MILTON         MOCLDY    71  71 100 SE5       30.11F
6HR MIN TEMP:  71; 6HR MAX TEMP:  72; 6HR PCP:  0.07;

WHTNG S FIELD    N/A    N/A N/A N/A MISG      30.11F


CITY           SKY/WX    TMP DP  RH WIND       PRES   REMARKS
WALNUT HILL*   NOT AVBL
JAY*             N/A     72  70  94 SE7       30.12F
DUKE FIELD     MOCLDY    72  70  93 E6        30.11F
CRESTVIEW      MOCLDY    71  70  96 E3        30.13F
6HR MIN TEMP:  71; 6HR MAX TEMP:  74;

VALPARAISO     MOCLDY    76  73  89 E5        30.11F
6HR MIN TEMP:  75; 6HR MAX TEMP:  81; 6HR PCP: TRACE;

DESTIN         CLOUDY    78  74  87 SE10      30.11F
6HR MIN TEMP:  78; 6HR MAX TEMP:  82; 6HR PCP: TRACE;


$$

MSZ076-079-260700-
INTERIOR SOUTHEAST MISSISSIPPI

CITY           SKY/WX    TMP DP  RH WIND       PRES   REMARKS
LEAKESVILLE*     N/A     72  72 100 SE2       30.10S
AGRICOLA*      NOT AVBL

$$

MARINE OBSERVATIONS

STATION/POSITION TIME  TEMP    WIND        PRES    WAVE
                       AIR SEA DIR/SP/G            HT/PER
                 (UTC) (F)     (DEG/KT/KT) (MB)    (FT/S)
PASCAGOULA       0500   80     140/ 14/ 20 1018.7F
PETIT BOIS ISLND 0500   81     130/ 13/ 18 1019.4S
GRAND BAY        0400   80     140/ 15     1020.0S
CEDAR POINT      0500   79     150/ 13     1019.3F
E DAUPHIN ISLAND 0500   80     140/ 16/ 17 1019.0F
MIDDLE BAY LIGHT 0500   76     110/ 11     1019.0F
USCG MOBILE BAY  0500   77 80  140/  7/  9 1018.2F
STATE DOCKS      0500   76 80              1019.0F
MEAHER PARK      0500   75     140/  8     1019.0F
WEEKS BAY        0400   73                   N/A
FORT MORGAN      0500   80     150/ 18/ 19 1018.8F
12 S ORANGE BCH  0550   80 80  130/ 14/ 16 1018.2F   4/ 7
PENSACOLA BAY    0500   80 82  150/  4/  9 1020.0F
64 S DAUPHIN ISL 0550   80 80  130/ 16/ 19 1018.7F   5/ 6
67 S FORT MORGAN 0530   79     130/ 19     1018.6F

$$

SELECTED LOCATIONS ACROSS THE REGION

CITY           SKY/WX    TMP DP  RH WIND       PRES   REMARKS
NEW ORLEANS    TSTM      75  69  81 SE7       30.08R
GULFPORT       LGT RAIN  78  74  87 S9        30.07S
PASCAGOULA AP  CLOUDY    79  76  90 SE13      30.08F
PASCAGOULA*    NOT AVBL
HATTIESBURG    LGT RAIN  76  74  93 S5        30.08S
LAUREL         CLOUDY    72 N/A N/A CALM      30.09F
MERIDIAN       MOCLDY    69  67  93 S5        30.08F
JACKSON        MOCLDY    74  71  91 S10       30.03F
MONTGOMERY     CLOUDY    70  67  90 E5        30.14F
TROY           MOCLDY    69  67  93 CALM      30.15F
KINSTON*         N/A     70  70 100 CALM        N/A
GENEVA*          N/A     70  68  94 SE3       30.15F
ASHFORD*         N/A     70  70 100 SE6       30.13F
DOTHAN         MOCLDY    71  69  93 E7        30.18S
PANAMA CITY    MOCLDY    72  69  90 E3        30.13F

$$




USA.gov is the U.S. government's official web portal to all federal, state and local government web resources and services.